Flag Weather past 2 weeks in Gaza, Gaza Strip

Now
70 °F

Passing clouds.


Feels Like: 70 °F
Forecast: 65 / 72 °F
Wind: 6 mph from Southeast

Location: Ben Gurion International Airport

Current Time: Oct 30, 2014 at 7:33:59 PM

Latest Report: Oct 30, 2014 at 6:50 PM


Visibility: N/A

Pressure: 29.95 "Hg

Humidity: 69%

Dew point: 59 °F

Location of GazaLocation

Historic Weather in Gaza — Graph

°F

Gaza temperature yesterday

Maximum temperature yesterday: 79 °F (at 9:50 AM)
Minimum temperature yesterday: 63 °F (at 4:20 AM)
Average temperature yesterday: 72 °F

Past Weeks' High & Low Weather Summary

 TemperatureHumidityPressure
High88 °F (Oct 25, 11:20 AM)88% (Oct 16, 11:20 AM)30.12 "Hg (Oct 16, 11:20 AM)
Low59 °F (Oct 22, 4:50 AM)24% (Oct 25, 11:50 AM)29.74 "Hg (Oct 19, 1:50 PM)
Average72 °F64%29.98 "Hg
* Reported Oct 15 7:20 PM — Oct 30 6:20 PM, Gaza, Weather by CustomWeather, © 2014

Note: Actual official high and low records may vary slightly from our data, if they occured in-between our weather recording intervals... More about our weather records

Advertising

Gaza weather history for previous 24 hours

 ConditionsComfort  
Time TempWeatherWind HumidityBarometerVisibility
6:20 PM
Oct 30
70 °FPassing clouds.5 mph69%29.95 "HgN/A
5:50 PM68 °FPassing clouds.6 mph73%29.95 "HgN/A
5:20 PM70 °FPassing clouds.7 mph73%29.95 "HgN/A
4:50 PM70 °FPartly sunny.7 mph73%29.95 "HgN/A
4:20 PM72 °FPartly sunny.12 mph69%29.95 "HgN/A
3:50 PM73 °FBroken clouds.16 mph69%29.92 "HgN/A
3:20 PM75 °FBroken clouds.13 mph61%29.92 "HgN/A
2:50 PM77 °FScattered clouds.12 mph54%29.92 "HgN/A
2:20 PM77 °FScattered clouds.10 mph54%29.92 "HgN/A
1:50 PM79 °FScattered clouds.12 mph48%29.92 "HgN/A
1:20 PM79 °FScattered clouds.10 mph51%29.92 "HgN/A
12:50 PM79 °FScattered clouds.10 mph51%29.92 "HgN/A
12:20 PM77 °FScattered clouds.10 mph51%29.95 "HgN/A
11:50 AM77 °FScattered clouds.10 mph51%29.95 "HgN/A
11:20 AM77 °FScattered clouds.7 mph51%29.95 "HgN/A
10:50 AM77 °FScattered clouds.7 mph51%29.95 "HgN/A
10:20 AM77 °FScattered clouds.7 mph54%29.98 "HgN/A
9:50 AM73 °FScattered clouds.5 mph65%29.98 "HgN/A
9:20 AM75 °FScattered clouds.3 mph61%29.98 "HgN/A
8:50 AM73 °FScattered clouds.7 mph65%30.01 "HgN/A
8:20 AM72 °FScattered clouds.7 mph65%30.01 "HgN/A
7:50 AM72 °FPassing clouds.6 mph65%29.98 "HgN/A
7:20 AM70 °FPassing clouds.3 mph69%29.98 "HgN/A
6:50 AM66 °FPassing clouds.3 mph73%29.98 "HgN/A
6:20 AM64 °FPassing clouds.1 mph78%29.98 "HgN/A
5:50 AM64 °FPassing clouds.3 mph78%29.98 "HgN/A
5:20 AM64 °FPassing clouds.3 mph78%29.98 "HgN/A
4:50 AM66 °FPassing clouds.2 mph73%29.98 "HgN/A
4:20 AM66 °FPassing clouds.3 mph73%29.98 "HgN/A
3:50 AM66 °FPassing clouds.6 mph73%29.98 "HgN/A
3:20 AM68 °FPassing clouds.5 mph69%29.98 "HgN/A
2:50 AM68 °FPassing clouds.5 mph73%29.98 "HgN/A
2:20 AM68 °FPassing clouds.3 mph73%29.98 "HgN/A
1:50 AM68 °FPassing clouds.2 mph73%29.98 "HgN/A
1:20 AM66 °FPassing clouds.7 mph73%30.01 "HgN/A
12:50 AM68 °FPassing clouds.3 mph69%29.98 "HgN/A
12:20 AM68 °FPassing clouds.3 mph69%30.01 "HgN/A
11:50 PM
Oct 29
68 °FPassing clouds.3 mph69%30.01 "HgN/A
11:20 PM68 °FPassing clouds.3 mph69%30.01 "HgN/A
10:50 PM68 °FPassing clouds.2 mph69%30.01 "HgN/A
10:20 PM70 °FPassing clouds.5 mph64%30.01 "HgN/A
9:50 PM70 °FPassing clouds.3 mph64%30.01 "HgN/A
9:20 PM70 °FPassing clouds.2 mph64%30.01 "HgN/A
8:50 PM72 °FPassing clouds.3 mph65%30.01 "HgN/A
8:20 PM72 °FPassing clouds.3 mph65%30.01 "HgN/A
7:50 PM72 °FPassing clouds.2 mph65%30.01 "HgN/A
7:20 PM73 °FPassing clouds.2 mph61%29.98 "HgN/A
Weather by CustomWeather, © 2014

See weather overviewHow to use our weather pages